CHINASAT 16 (SJ-13)

Last updated on Thu Oct 30 2025 00:02:50 GMT+0000 (Coordinated Universal Time)

1 42662U 17018A 25302.59686234 -.00000342 00000+0 00000+0 0 9990 2 42662 0.0477 78.9975 0007751 158.6794 125.9321 1.00272938 31420
UTC large
Height (km)
Speed (km/s)
/
Latitude / Longitude
Inclination (degrees)
Orbital Period (minutes)
Azimuth
Elevation
Range (km)
Doppler Factor

Next 0 passes for location: London (51.5072 / 0.1276)

Sorry there are no passes over London.